Columbus, OH

10:50 PM EST on December 09, 2016 (GMT -0500)
Ohio State University

Weather History for KOSU - December, 2013

Change the Weather History Date:

Sunday, December 1, 2013

  Actual Average Record
Temperature  
Mean Temperature 38 °F -  
Max Temperature 46 °F 44 °F 61 °F (2006)
Min Temperature 30 °F 30 °F 17 °F (1999)
Degree Days  
Heating Degree Days 27    
Moisture  
Dew Point 31 °F    
Average Humidity 76    
Maximum Humidity 93    
Minimum Humidity 60    
Precipitation  
Precipitation 0.00 in - - ()
Sea Level Pressure  
Sea Level Pressure 30.07 in    
Wind  
Wind Speed 4 mph (South)    
Max Wind Speed 9 mph    
Max Gust Speed -    
Visibility 10 miles    
Events      
Averages and records for this station are not official NWS values.
T = Trace of Precipitation, MM = Missing Value Source: NWS Daily Summary

Daily Weather History Graph

Daily Weather History Graph

Search for Another Location

Airport or City:

Trip Planner

Search our weather history database for the weather conditions in past years. The results will help you decide how hot, cold, wet, or windy it might be!

Date:

Astronomy

Dec. 01, 2013 Rise Set
Actual Time 7:35 AM EST 5:07 PM EST
Civil Twilight 7:05 AM EST 5:37 PM EST
Nautical Twilight 6:31 AM EST 6:11 PM EST
Astronomical Twilight 5:59 AM EST 6:43 PM EST
Moon 5:52 AM EST (12/1) 4:16 PM EST (12/1)
Length of Visible Light 10h 32m
Length of Day
9h 31m
Waning Crescent, 2% of the Moon is Illuminated
Dec 1
Waning Crescent
Dec 2
New
Dec 9
First Quarter
Dec 17
Full
Dec 25
Last Quarter

Hourly Weather History & Observations

Time (EST) Temp. Windchill Dew Point Humidity Pressure Visibility Wind Dir Wind Speed Gust Speed Precip Events Conditions
12:53 AM 35.1 °F 31.0 °F 28.0 °F 76% 30.18 in 10.0 mi South 4.6 mph - N/A   Clear
1:53 AM 34.0 °F 31.0 °F 28.0 °F 79% 30.16 in 10.0 mi South 3.5 mph - N/A   Clear
2:53 AM 33.1 °F 30.0 °F 27.0 °F 78% 30.16 in 10.0 mi SSE 3.5 mph - N/A   Clear
3:53 AM 33.1 °F 30.0 °F 27.0 °F 78% 30.14 in 10.0 mi South 3.5 mph - N/A   Clear
4:53 AM 30.9 °F 26.2 °F 27.0 °F 85% 30.14 in 10.0 mi SSE 4.6 mph - N/A   Clear
5:53 AM 30.9 °F 27.5 °F 26.1 °F 82% 30.14 in 10.0 mi SSE 3.5 mph - N/A   Clear
6:53 AM 30.0 °F - 25.0 °F 82% 30.14 in 10.0 mi Calm Calm - N/A   Clear
7:53 AM 33.1 °F 28.7 °F 28.0 °F 82% 30.14 in 10.0 mi South 4.6 mph - N/A   Overcast
8:53 AM 35.1 °F 30.1 °F 28.0 °F 76% 30.13 in 10.0 mi South 5.8 mph - N/A   Overcast
9:53 AM 37.0 °F 33.3 °F 28.9 °F 73% 30.12 in 10.0 mi SSW 4.6 mph - N/A   Overcast
10:53 AM 39.0 °F 34.8 °F 30.0 °F 70% 30.12 in 10.0 mi SSW 5.8 mph - N/A   Overcast
11:53 AM 42.1 °F 36.6 °F 30.9 °F 65% 30.09 in 10.0 mi SSW 9.2 mph - N/A   Overcast
12:53 PM 44.1 °F 39.0 °F 32.0 °F 63% 30.06 in 10.0 mi SSW 9.2 mph - N/A   Overcast
1:53 PM 45.0 °F 40.6 °F 32.0 °F 60% 30.04 in 10.0 mi SW 8.1 mph - N/A   Overcast
2:53 PM 46.0 °F 41.4 °F 33.1 °F 61% 30.02 in 10.0 mi SSW 9.2 mph - N/A   Clear
3:53 PM 46.9 °F - 34.0 °F 61% 30.02 in 10.0 mi SSW 8.1 mph - N/A   Mostly Cloudy
4:53 PM 45.0 °F 41.8 °F 34.0 °F 65% 30.00 in 10.0 mi South 5.8 mph - N/A   Partly Cloudy
5:53 PM 43.0 °F 40.3 °F 34.0 °F 71% 30.01 in 10.0 mi South 4.6 mph - N/A   Partly Cloudy
6:53 PM 42.1 °F 38.4 °F 35.1 °F 76% 30.01 in 10.0 mi South 5.8 mph - N/A   Overcast
7:53 PM 41.0 °F - 35.1 °F 79% 30.01 in 10.0 mi Calm Calm - N/A   Overcast
8:53 PM 37.9 °F - 34.0 °F 86% 30.00 in 10.0 mi Calm Calm - N/A   Scattered Clouds
9:53 PM 37.9 °F - 34.0 °F 86% 29.99 in 9.0 mi Calm Calm - N/A   Overcast
10:53 PM 36.0 °F - 34.0 °F 93% 29.99 in 8.0 mi Calm Calm - N/A   Overcast
11:53 PM 34.0 °F - 30.9 °F 89% 29.98 in 7.0 mi Calm Calm - N/A   Mostly Cloudy